Content
SEND FEEDBACK

Daily
Averages
Monthly
Summary
United States of America

SLOAN, NORTH CAROLINA


Home > North America > United States > North Carolina
Elevation: 2 meters     Latitude: 34 47N     Longitude: 077 49W

WEATHER
 
SELECT A DAY
Number of Records: 437,097;   Date Range: 1/1/95 - 7/23/14
 
SHARE

PRINT THIS DATA

[ ← Previous Day ]
WEATHER ALMANAC - 18 FEBRUARY, 2013
[ Next Day → ]
[ °F ]   °C
Weather ElementAverageHighLow
Temperature1.2 °C11 °C (3:55 pm)-8 °C (5:55 am)
Dewpoint-7.4 °C-3 °C (9:35 pm)-12 °C (2:15 pm)
Humidity59.6 %93 % (3:55 am)22 % (2:15 pm)
Barometer1028.8 hPa1031.5 hPa (9:15 am)1026.4 hPa (12:35 am)
Wind Speed4.8 km/h18.5 km/h (5:35 pm)
Wind Gust25.9 km/h (5:35 pm)
Weather ElementAverage
Visibility16.1 km
Wind DirectionESE (98.9 °)

Weather ElementTotal
Precipitation---
Heating Degree Days16.8 (Base 18.3)
Averaged from 71 records on 18 February, 2013
WEATHER CONDITIONS BREAKOUT
WIND DIRECTION BREAKOUT
WEATHER BY HOUR - 18 FEBRUARY, 2013
[ °F ]   °C
Local TimeTemperatureDewpointHumidityBarometerVisibilityWind DirectionWind SpeedGust SpeedPrecipitationEventsConditions
12:35 AM-4 °C-7 °C80 %1026.4 hPa16.1 kmNNW (340°)5.6 km/hClear
12:55 AM-5 °C-8 °C80 %1026.8 hPa16.1 kmCalmClear
1:15 AM-5 °C-8 °C80 %1026.8 hPa16.1 kmCalmClear
1:35 AM-6 °C-8 °C86 %1027.1 hPa16.1 kmCalmClear
1:55 AM-6 °C-8 °C86 %1027.1 hPa16.1 kmCalmClear
2:15 AM-6 °C-8 °C86 %1027.1 hPa16.1 kmCalmClear
2:35 AM-6 °C-8 °C86 %1027.1 hPa16.1 kmCalmClear
2:55 AM-6 °C-8 °C86 %1027.4 hPa16.1 kmCalmClear
3:15 AM-7 °C-9 °C86 %1027.1 hPa16.1 kmCalmClear
3:35 AM-7 °C-9 °C86 %1027.4 hPa16.1 kmCalmClear
3:55 AM-7 °C-8 °C93 %1027.4 hPa16.1 kmCalmClear
4:15 AM-7 °C-8 °C93 %1027.8 hPa16.1 kmCalmClear
4:35 AM-7 °C-9 °C86 %1028.1 hPa16.1 kmCalmClear
4:55 AM-7 °C-8 °C93 %1028.4 hPa16.1 kmCalmClear
5:15 AM-7 °C-9 °C86 %1028.8 hPa16.1 kmCalmClear
5:35 AM-7 °C-8 °C93 %1028.8 hPa16.1 kmCalmClear
5:55 AM-8 °C-9 °C93 %1028.8 hPa16.1 kmCalmClear
6:15 AM-7 °C-9 °C86 %1028.8 hPa16.1 kmCalmClear
6:35 AM-7 °C-9 °C86 %1029.1 hPa16.1 kmCalmClear
6:55 AM-7 °C-9 °C86 %1029.5 hPa16.1 kmCalmClear
7:15 AM-7 °C-9 °C86 %1030.1 hPa16.1 kmCalmClear
7:35 AM-6 °C-7 °C93 %1030.5 hPa16.1 kmCalmClear
7:55 AM-4 °C-7 °C80 %1030.5 hPa16.1 kmCalmClear
8:15 AM-3 °C-7 °C74 %1030.8 hPa16.1 kmCalmClear
8:35 AM-1 °C-7 °C64 %1031.2 hPa16.1 kmCalmClear
8:55 AM0 °C-8 °C55 %1031.2 hPa16.1 kmEast (90°)7.4 km/hClear
9:15 AM1 °C-9 °C48 %1031.5 hPa16.1 kmEast (100°)5.6 km/hClear
9:35 AM2 °C-9 °C44 %1031.5 hPa16.1 kmCalmClear
9:55 AM2 °C-11 °C38 %1031.5 hPa16.1 kmCalmClear
10:15 AM3 °C-11 °C36 %1031.5 hPa16.1 kmCalmClear
10:35 AM4 °C-10 °C36 %1031.5 hPa16.1 kmENE (70°)7.4 km/hClear
10:55 AM4 °C-11 °C33 %1031.5 hPa16.1 kmCalmClear
11:15 AM6 °C-8 °C36 %1031.5 hPa16.1 kmCalmClear
11:35 AM5 °C-10 °C33 %1031.2 hPa16.1 kmCalmClear
11:55 AM7 °C-8 °C34 %1030.8 hPa16.1 kmSW (230°)5.6 km/hClear
12:15 PM7 °C-9 °C31 %1030.8 hPa16.1 kmCalmClear
12:35 PM8 °C-9 °C29 %1030.5 hPa16.1 kmCalmClear
12:55 PM8 °C-10 °C27 %1030.1 hPa16.1 kmWSW (250°)11.1 km/hClear
1:15 PM9 °C-11 °C24 %1029.5 hPa16.1 kmNNE (20°)7.4 km/hClear
1:35 PM8 °C-11 °C25 %1029.1 hPa16.1 kmNorth (360°)7.4 km/hClear
1:55 PM9 °C-11 °C24 %1028.8 hPa16.1 kmSW (220°)7.4 km/hClear
2:15 PM9 °C-12 °C22 %1028.4 hPa16.1 kmCalmClear
2:35 PM9 °C-12 °C22 %1028.4 hPa16.1 kmWSW (250°)9.3 km/hClear
2:55 PM10 °C-11 °C22 %1028.1 hPa16.1 kmSSW (210°)7.4 km/hClear
3:15 PM10 °C-11 °C22 %1028.1 hPa16.1 kmSSW (200°)9.3 km/hClear
3:35 PM10 °C-11 °C22 %1028.1 hPa16.1 kmCalmClear
3:55 PM11 °C-10 °C22 %1028.1 hPa16.1 kmSouth (190°)13 km/hClear
4:15 PM11 °C-9 °C24 %1028.1 hPa16.1 kmSW (230°)11.1 km/hClear
4:35 PM9 °C-4 °C40 %1028.1 hPa16.1 kmSSE (160°)14.8 km/hClear
4:55 PM9 °C-5 °C37 %1028.4 hPa16.1 kmSouth (170°)16.7 km/hClear
5:15 PM8 °C-4 °C43 %1028.4 hPa16.1 kmSouth (170°)16.7 km/hClear
5:35 PM7 °C-4 °C46 %1028.4 hPa16.1 kmSouth (170°)18.5 km/h25.9 km/hClear
5:55 PM6 °C-4 °C49 %1028.4 hPa16.1 kmSouth (180°)14.8 km/hClear
6:15 PM5 °C-4 °C53 %1028.8 hPa16.1 kmSouth (180°)13 km/hClear
6:35 PM4 °C-4 °C56 %1028.8 hPa16.1 kmSouth (180°)11.1 km/hClear
6:55 PM4 °C-4 °C56 %1028.8 hPa16.1 kmSouth (190°)11.1 km/hClear
7:15 PM4 °C-4 °C56 %1028.8 hPa16.1 kmSouth (180°)9.3 km/hClear
7:35 PM3 °C-4 °C60 %1028.8 hPa16.1 kmSouth (180°)11.1 km/hClear
7:55 PM3 °C-4 °C60 %1028.8 hPa16.1 kmSouth (190°)7.4 km/hClear
8:15 PM2 °C-4 °C65 %1028.8 hPa16.1 kmSSW (200°)5.6 km/hClear
8:35 PM2 °C-4 °C65 %1028.4 hPa16.1 kmSSW (200°)5.6 km/hClear
8:55 PM1 °C-4 °C70 %1028.4 hPa16.1 kmSSW (200°)7.4 km/hClear
9:15 PM1 °C-4 °C70 %1028.4 hPa16.1 kmSSW (200°)5.6 km/hClear
9:35 PM1 °C-3 °C75 %1028.4 hPa16.1 kmSSW (200°)7.4 km/hClear
9:55 PM2 °C-4 °C65 %1028.1 hPa16.1 kmSouth (190°)7.4 km/hClear
10:15 PM2 °C-4 °C65 %1027.8 hPa16.1 kmSouth (190°)5.6 km/hClear
10:35 PM2 °C-4 °C65 %1027.4 hPa16.1 kmSouth (180°)7.4 km/hClear
10:55 PM1 °C-4 °C70 %1027.1 hPa16.1 kmSouth (180°)7.4 km/hClear
11:15 PM1 °C-4 °C70 %1026.8 hPa16.1 kmSouth (190°)5.6 km/hClear
11:35 PM0 °C-3 °C80 %1026.4 hPa16.1 kmSouth (190°)7.4 km/hClear
11:55 PM1 °C-3 °C75 %1026.4 hPa16.1 kmSouth (190°)9.3 km/hClear
Hourly data recorded from KOAJ, located 0 kilometers away from Sloan, North Carolina







STORIES FROM OUR PARTNERS